[[{"header":{"parameterUnit":"m.s-1","parameterCategory":1,"la1":30.2992,"la2":30.254,"lo1":-89.0895,"lo2":-89.0443,"dy":0.0025,"dx":0.0025,"nx":19,"ny":19,"refTime":"2026-05-03T03:00:00:Z","depth":0,"parameterNumber":2,"parameterNumberName":"U-component_of_WINDS"},"data":[0,0,0,1.5948,1.5946,1.5825,1.5825,1.5688,1.5687,0,0,0,0,0,0,0,0,0,0,0,1.6,1.5999,1.5948,1.5946,1.5825,1.5825,1.5688,1.5687,0,0,0,0,0,0,0,0,0,0,0,1.6,1.5999,1.5999,1.5945,1.5825,1.5825,1.5688,1.5772,0,0,0,0,0,0,0,0,0,0,1.5886,1.595,1.5999,1.5999,1.5945,1.5826,1.5824,1.5776,1.5767,1.5752,0,1.5747,0,1.5715,1.5679,1.5679,0,0,0,1.5933,1.5957,1.5911,1.5999,1.5944,1.5826,1.5876,1.5771,1.5761,1.574,1.5745,1.5739,1.5713,1.5679,1.5678,1.5643,1.5643,0,0,1.594,1.5985,1.5918,1.5905,1.593,1.588,1.5873,1.5764,1.577,1.5744,1.5735,1.5711,1.5678,1.5677,1.5642,1.5643,0,0,0,1.5968,1.5991,1.5946,1.5912,1.5889,1.5877,1.5868,1.5775,1.5757,1.5734,1.5709,1.5677,1.5676,1.5642,1.5642,1.5708,0,0,0,1.5971,1.6007,1.595,1.5976,1.5891,1.5831,1.5882,1.5765,1.5751,1.571,1.5677,1.5675,1.5641,1.5642,1.5705,1.573,0,0,0,1.6002,1.601,1.5998,1.5979,1.5929,1.5832,1.5807,1.5761,1.5737,1.5679,1.5675,1.5641,1.5642,1.5702,1.5726,1.5733,0,0,0,1.6047,1.6058,1.6,1.6002,1.5931,1.5876,1.5808,1.5763,1.5722,1.5677,1.5641,1.5642,1.5702,1.5723,1.573,1.5746,1.5757,0,0,1.6086,1.6064,1.6061,1.6006,1.5973,1.589,1.5864,1.5782,1.5733,1.5674,1.5673,1.5706,1.5726,1.5732,1.5808,1.5818,0,0,0,1.6089,1.6087,1.6068,1.6033,1.5972,1.592,1.5838,1.5806,1.5755,1.5714,1.571,1.572,1.5722,1.5727,1.5735,1.5732,1.5647,1.5647,1.5647,1.6207,1.6146,1.6136,1.6061,1.6026,1.594,1.5905,1.5847,1.5795,1.5795,1.5776,1.5831,1.5838,1.5844,1.5842,1.5781,1.5781,1.5782,1.5782,1.6256,1.6243,1.6173,1.6139,1.6073,1.6041,1.5957,1.5921,1.5878,1.584,1.5838,1.58,1.5857,1.5851,1.5786,1.5785,1.5785,1.5784,1.5784,1.6325,1.6308,1.6272,1.6212,1.6172,1.6093,1.6057,1.5997,1.594,1.5939,1.5911,1.591,1.5899,1.593,1.5931,1.5931,1.5931,1.5931,1.5931,1.6411,1.6368,1.6346,1.6282,1.625,1.6199,1.6112,1.6076,1.6022,1.5981,1.598,1.5925,1.5875,1.5862,1.5934,1.5933,1.5933,1.5933,1.5933,1.6479,1.6454,1.6421,1.6389,1.6306,1.6269,1.6194,1.6127,1.6089,1.6072,1.6017,1.5991,1.5963,1.5956,1.5945,1.6033,1.6033,1.6033,1.6033,1.6536,1.6517,1.6468,1.6421,1.6367,1.6296,1.6254,1.6185,1.6108,1.608,1.6058,1.6039,1.6035,1.6009,1.6001,1.5989,1.6087,1.6087,1.6087,1.6573,1.6546,1.6525,1.6454,1.6384,1.6324,1.6283,1.6226,1.6134,1.6088,1.6055,1.6053,1.6021,1.6015,1.5967,1.5956,1.5934,0,0]},{"header":{"parameterUnit":"m.s-1","parameterCategory":1,"la1":30.2992,"la2":30.254,"lo1":-89.0895,"lo2":-89.0443,"dy":0.0025,"dx":0.0025,"nx":19,"ny":19,"refTime":"2026-05-03T03:00:00:Z","depth":0,"parameterNumber":3,"parameterNumberName":"V-component_of_WINDS"},"data":[0,0,0,-0.0044,-0.0044,-0.0084,-0.0085,-0.0121,-0.0122,0,0,0,0,0,0,0,0,0,0,0,-0.0022,-0.0022,-0.0044,-0.0044,-0.0084,-0.0085,-0.0121,-0.0122,0,0,0,0,0,0,0,0,0,0,0,-0.0022,-0.0022,-0.0022,-0.0044,-0.0084,-0.0085,-0.0121,-0.0096,0,0,0,0,0,0,0,0,0,0,-0.006,-0.003,-0.0022,-0.0022,-0.0045,-0.0084,-0.0085,-0.0095,-0.0098,-0.0097,0,-0.0092,0,-0.0108,-0.0123,-0.0123,0,0,0,-0.0051,-0.0028,-0.0048,-0.0022,-0.0045,-0.0084,-0.0068,-0.0097,-0.01,-0.01,-0.0093,-0.0095,-0.0108,-0.0123,-0.0123,-0.0093,-0.0092,0,0,-0.0049,-0.0024,-0.0046,-0.0049,-0.0041,-0.0067,-0.0069,-0.0099,-0.009,-0.0093,-0.0096,-0.0109,-0.0123,-0.0123,-0.0093,-0.0093,0,0,0,-0.0038,-0.0022,-0.0041,-0.0047,-0.0055,-0.0068,-0.0071,-0.0088,-0.0097,-0.0097,-0.0109,-0.0123,-0.0124,-0.0094,-0.0093,-0.0044,0,0,0,-0.0037,-0.0015,-0.004,-0.0025,-0.0055,-0.0072,-0.0059,-0.0095,-0.0099,-0.0109,-0.0123,-0.0124,-0.0094,-0.0093,-0.0047,-0.0025,0,0,0,-0.0023,-0.0014,-0.0016,-0.0023,-0.004,-0.0072,-0.0083,-0.0096,-0.0106,-0.0123,-0.0124,-0.0095,-0.0094,-0.0049,-0.0029,-0.001,0,0,0,0.0,0.0029,-0.0015,0.0011,-0.0039,-0.0042,-0.0083,-0.0086,-0.0095,-0.0124,-0.0094,-0.0093,-0.005,-0.0031,-0.0012,0.0011,0.0023,0,0,0.005,0.0036,0.0049,0.0008,0.0019,-0.0038,-0.0021,-0.0052,-0.0077,-0.0086,-0.0086,-0.0046,-0.0029,-0.001,0.008,0.009,0,0,0,0.0073,0.0083,0.008,0.0073,0.0048,0.0029,-0.0009,-0.0021,-0.0031,-0.0076,-0.0036,-0.0026,-0.0016,-0.0006,0.0002,0.0009,-0.0088,-0.0088,-0.0088,0.0182,0.0147,0.0166,0.0126,0.0119,0.0078,0.0069,0.0045,0.0013,0.0023,0.0021,0.008,0.0093,0.0099,0.0106,0.003,0.003,0.003,0.003,0.0252,0.0261,0.0214,0.0217,0.0179,0.018,0.0141,0.0117,0.0112,0.0079,0.0086,0.0055,0.0111,0.0115,0.0033,0.0033,0.0032,0.0032,0.0032,0.0321,0.0319,0.0302,0.0286,0.0276,0.0234,0.023,0.0196,0.0164,0.017,0.0164,0.0163,0.0158,0.0169,0.0169,0.0169,0.017,0.017,0.017,0.04,0.0379,0.038,0.0354,0.0343,0.0325,0.0281,0.0269,0.0247,0.0223,0.0222,0.0189,0.0122,0.0106,0.0173,0.0172,0.0172,0.0172,0.0171,0.0487,0.046,0.0463,0.0452,0.0417,0.0409,0.0364,0.0342,0.0327,0.0326,0.0289,0.0245,0.0228,0.0221,0.0208,0.0297,0.0297,0.0297,0.0297,0.0546,0.0532,0.0526,0.051,0.049,0.0448,0.0451,0.0416,0.0376,0.0364,0.0345,0.0324,0.0319,0.0305,0.0296,0.0284,0.039,0.039,0.039,0.0597,0.0579,0.0589,0.0549,0.0518,0.0491,0.0492,0.0475,0.0424,0.0393,0.0354,0.035,0.0315,0.0306,0.0277,0.0265,0.0241,0,0]}]]